Location: ???????
(55.4362°N, 38.1183°E)
Time: 01:09:21
(UTC+00:00)

Cosmos 1943 Rocket - Pass Details

Date: 17 June 2021
Orbit: 813 x 843 km, 71.0° (Epoch: 26 July)

Event Time Altitude Azimuth Distance (km) Brightness Sun altitude
Rises 19:04:52 0° 319° (NW) 3,352 7.7 -5.4°
Reaches altitude 10° 19:07:50 10° 334° (NNW) 2,416 6.4 -5.6°
Maximum altitude 19:12:09 23° 26° (NNE) 1,690 4.2 -6.0°
Drops below altitude 10° 19:16:28 10° 78° (ENE) 2,411 4.4 -6.3°
Sets 19:19:25 0° 93° (E) 3,343 5.0 -6.5°
